Weather in Yangiabad

Uzbekistan     37°28′40″N   67°06′50″E
temp.,
°C
wind,
m/s
gust,
m/s
humid.,
%
clouds,
%
prec.,
mm/h
press.,
hPa
HPBL,
m
16 june, wed
wed1623:00+26wsw12110 0.0 100221
02:00+24s12120 0.0 100319
05:00+23wnw12160 0.0 100419
08:00+27sw12130 0.0 1006287
11:00+32wsw22100 0.0 10061144
14:00+36wsw5350 0.0 10043173
17:00+37wsw4340 0.0 10023083
20:00+31ssw4460 0.0 100234
17 june, thu
thu1723:00+28n3380 0.0 100326
02:00+26ne33110 0.0 100327
05:00+23ne22140 0.0 100422
08:00+28nne23120 0.0 1005309
11:00+34w3380 0.0 10041261
14:00+37w2260 0.0 10022496
17:00+38wsw2260 0.0 10013001
20:00+33w4480 0.0 100136
18 june, fri
fri1823:00+29sw33100 0.0 100224
02:00+27ne34110 0.0 100340
05:00+25ne33200 0.0 100332
08:00+30ne34140 0.0 1005304
11:00+36s0190 0.0 10041081
14:00+39wsw2160 0.0 10033514
17:00+40sw2250 0.0 10013471
20:00+34wsw4460 0.0 100237
19 june, sat
sat1923:00+31wsw3370 0.0 100321
02:00+28n0290 0.0 100211
05:00+25ese12120 0.0 100414
08:00+30sw22110 0.0 1005298
11:00+36w1280 0.0 1005879
14:00+40w2260 0.0 10022891
17:00+41sse2360 0.0 10003484
20:00+36nnw71280 0.0 999241
20 june, sun
sun2023:00+31wnw33190 0.0 100033
02:00+28e12230 0.0 100113
05:00+26s25240 0.0 100255
08:00+30wsw67190 0.0 1004508
11:00+33wsw121290 0.0 10051157
14:00+36wsw111090 0.0 10031285
17:00+38wsw8790 0.0 10002202
20:00+32wnw45110 0.0 100161